DeLand, FL

7:05 AM EST on February 09, 2016 (GMT -0500)
De Land Municipal-Taylor

Weather History for KDED - November, 2013

Change the Weather History Date:

Saturday, November 30, 2013

  Actual Average Record
Temperature  
Mean Temperature 66 °F -  
Max Temperature 75 °F 74 °F 77 °F (2015)
Min Temperature 57 °F 49 °F 57 °F (2013)
Cooling Degree Days 1    
Growing Degree Days 16 (Base 50)    
Moisture  
Dew Point 59 °F    
Average Humidity 83    
Maximum Humidity 100    
Minimum Humidity 50    
Precipitation  
Precipitation 0.00 in - - ()
Sea Level Pressure  
Sea Level Pressure 30.29 in    
Wind  
Wind Speed 9 mph (North)    
Max Wind Speed 16 mph    
Max Gust Speed 22 mph    
Visibility 8 miles    
Events      
Averages and records for this station are not official NWS values.
T = Trace of Precipitation, MM = Missing Value Source: NWS Daily Summary

Daily Weather History Graph

Daily Weather History Graph

Search for Another Location

Airport or City:

Trip Planner

Search our weather history database for the weather conditions in past years. The results will help you decide how hot, cold, wet, or windy it might be!

Date:

Astronomy

Nov. 30, 2013 Rise Set
Actual Time 7:00 AM EST 5:26 PM EST
Civil Twilight 6:35 AM EST 5:52 PM EST
Nautical Twilight 6:05 AM EST 6:21 PM EST
Astronomical Twilight 5:37 AM EST 6:50 PM EST
Moon 4:20 AM EST (11/30) 3:41 PM EST (11/30)
Length of Visible Light 11h 17m
Length of Day
10h 26m
Waning Crescent, 7% of the Moon is Illuminated
Nov 30
Waning Crescent
Dec 2
New
Dec 9
First Quarter
Dec 17
Full
Dec 25
Last Quarter

Hourly Weather History & Observations

Time (EST) Temp. Dew Point Humidity Pressure Visibility Wind Dir Wind Speed Gust Speed Precip Events Conditions
12:15 AM 57.2 °F 55.4 °F 94% 30.34 in - North 11.5 mph - N/A   Overcast
12:35 AM 59.0 °F 55.4 °F 88% 30.34 in 9.0 mi North 8.1 mph - N/A   Overcast
12:55 AM 59.0 °F 55.4 °F 88% 30.33 in 8.0 mi North 10.4 mph 17.3 mph N/A   Overcast
1:15 AM 59.0 °F 55.4 °F 88% 30.33 in 9.0 mi North 10.4 mph - N/A   Overcast
1:35 AM 59.0 °F 55.4 °F 88% 30.32 in 8.0 mi North 10.4 mph - N/A   Mostly Cloudy
1:55 AM 59.0 °F 55.4 °F 88% 30.32 in - North 8.1 mph - N/A   Unknown
2:15 AM 57.2 °F 55.4 °F 94% 30.32 in - North 8.1 mph - N/A   Unknown
2:35 AM 57.2 °F 55.4 °F 94% 30.31 in - North 6.9 mph - N/A   Overcast
2:55 AM 57.2 °F 55.4 °F 94% 30.30 in 6.0 mi North 5.8 mph - N/A   Overcast
3:15 AM 57.2 °F 55.4 °F 94% 30.30 in 7.0 mi NNW 5.8 mph - N/A   Mostly Cloudy
3:35 AM 59.0 °F 55.4 °F 88% 30.30 in - NNW 5.8 mph - N/A   Overcast
3:55 AM 59.0 °F 57.2 °F 94% 30.30 in - NNW 5.8 mph - N/A   Overcast
4:15 AM 59.0 °F 57.2 °F 94% 30.30 in - NNW 6.9 mph - N/A   Mostly Cloudy
4:35 AM 59.0 °F 57.2 °F 94% 30.30 in - NNW 8.1 mph - N/A   Overcast
4:55 AM 59.0 °F 57.2 °F 94% 30.30 in - NNW 8.1 mph - N/A   Overcast
5:15 AM 59.0 °F 57.2 °F 94% 30.30 in - NNW 8.1 mph - N/A   Overcast
5:35 AM 59.0 °F 57.2 °F 94% 30.30 in - NNW 10.4 mph - N/A   Mostly Cloudy
5:55 AM 59.0 °F 57.2 °F 94% 30.30 in - NNW 10.4 mph - N/A   Mostly Cloudy
6:15 AM 59.0 °F 59.0 °F 100% 30.30 in - North 9.2 mph - N/A   Mostly Cloudy
6:35 AM 60.8 °F 59.0 °F 94% 30.31 in - NNW 9.2 mph - N/A   Mostly Cloudy
6:55 AM 60.8 °F 59.0 °F 94% 30.31 in - NNW 8.1 mph - N/A   Overcast
7:15 AM 60.8 °F 59.0 °F 94% 30.32 in - NNW 6.9 mph - N/A   Overcast
7:35 AM 60.8 °F 59.0 °F 94% 30.33 in - NNW 6.9 mph - N/A   Mostly Cloudy
7:55 AM 62.6 °F 59.0 °F 88% 30.33 in - NNW 8.1 mph - N/A   Unknown
8:15 AM 62.6 °F 59.0 °F 88% 30.33 in - NNW 6.9 mph - N/A   Unknown
8:35 AM 64.4 °F 60.8 °F 88% 30.33 in - North 8.1 mph - N/A   Unknown
8:55 AM 66.2 °F 60.8 °F 83% 30.33 in - North 6.9 mph - N/A   Clear
9:15 AM 66.2 °F 60.8 °F 83% 30.33 in - North 8.1 mph - N/A   Clear
9:35 AM 68.0 °F 60.8 °F 78% 30.33 in - NNE 9.2 mph - N/A   Clear
9:55 AM 69.8 °F 60.8 °F 73% 30.33 in - NNE 11.5 mph 16.1 mph N/A   Clear
10:15 AM 71.6 °F 60.8 °F 69% 30.33 in - NNE 12.7 mph - N/A   Clear
10:35 AM 71.6 °F 62.6 °F 73% 30.32 in - North 11.5 mph 16.1 mph N/A   Clear
10:55 AM 71.6 °F 62.6 °F 73% 30.32 in - NE 12.7 mph 18.4 mph N/A   Clear
11:15 AM 71.6 °F 62.6 °F 73% 30.32 in - NNE 9.2 mph - N/A   Clear
11:35 AM 73.4 °F 59.0 °F 61% 30.31 in - NE 12.7 mph - N/A   Clear
11:55 AM 71.6 °F 59.0 °F 64% 30.30 in - North 10.4 mph - N/A   Partly Cloudy
12:15 PM 73.4 °F 59.0 °F 61% 30.29 in - NE 13.8 mph 18.4 mph N/A   Mostly Cloudy
12:35 PM 73.4 °F 57.2 °F 57% 30.28 in - NE 13.8 mph - N/A   Mostly Cloudy
12:55 PM 75.2 °F 55.4 °F 50% 30.28 in - NE 10.4 mph - N/A   Scattered Clouds
1:15 PM 75.2 °F 57.2 °F 53% 30.27 in - NNE 12.7 mph 19.6 mph N/A   Scattered Clouds
1:35 PM 73.4 °F 55.4 °F 53% 30.27 in - NNE 12.7 mph 19.6 mph N/A   Partly Cloudy
1:55 PM 73.4 °F 59.0 °F 61% 30.26 in - NNE 11.5 mph 18.4 mph N/A   Partly Cloudy
2:15 PM 73.4 °F 60.8 °F 65% 30.26 in - North 13.8 mph 17.3 mph N/A   Partly Cloudy
2:35 PM 71.6 °F 60.8 °F 69% 30.26 in - NNE 12.7 mph 17.3 mph N/A   Scattered Clouds
2:55 PM 71.6 °F 60.8 °F 69% 30.26 in - North 13.8 mph 21.9 mph N/A   Partly Cloudy
3:15 PM 68.0 °F 59.0 °F 73% 30.25 in - North 16.1 mph - N/A   Partly Cloudy
3:35 PM 68.0 °F 59.0 °F 73% 30.25 in - North 11.5 mph 20.7 mph N/A   Partly Cloudy
3:55 PM 66.2 °F 59.0 °F 78% 30.25 in - North 9.2 mph - N/A   Mostly Cloudy
4:15 PM 66.2 °F 60.8 °F 83% 30.25 in - North 10.4 mph - N/A   Overcast
4:35 PM 66.2 °F 60.8 °F 83% 30.25 in - NNE 12.7 mph - N/A   Overcast
4:55 PM 64.4 °F 60.8 °F 88% 30.25 in - North 9.2 mph - N/A   Overcast
5:15 PM 64.4 °F 59.0 °F 83% 30.26 in - North 11.5 mph 16.1 mph N/A   Overcast
5:35 PM 64.4 °F 59.0 °F 83% 30.26 in - North 10.4 mph - N/A   Overcast
5:55 PM 64.4 °F 59.0 °F 83% 30.26 in - NNW 10.4 mph - N/A   Overcast
6:15 PM 64.4 °F 59.0 °F 83% 30.25 in - NNW 8.1 mph - N/A   Overcast
6:35 PM 64.4 °F 59.0 °F 83% 30.26 in - NNW 9.2 mph - N/A   Overcast
6:55 PM 64.4 °F 59.0 °F 83% 30.26 in - North 9.2 mph - N/A   Overcast
7:15 PM 64.4 °F 59.0 °F 83% 30.25 in - NNW 10.4 mph - N/A   Overcast
7:35 PM 62.6 °F 59.0 °F 88% 30.26 in - NNW 10.4 mph - N/A   Overcast
7:55 PM 62.6 °F 59.0 °F 88% 30.25 in - NNW 9.2 mph - N/A   Overcast
8:15 PM 62.6 °F 59.0 °F 88% 30.25 in - North 8.1 mph - N/A   Overcast
8:35 PM 62.6 °F 59.0 °F 88% 30.25 in - NNW 8.1 mph - N/A   Overcast
8:55 PM 62.6 °F 60.8 °F 94% 30.25 in - North 5.8 mph - N/A   Overcast
9:15 PM 62.6 °F 60.8 °F 94% 30.25 in - North 5.8 mph - N/A   Overcast
9:35 PM 62.6 °F 60.8 °F 94% 30.25 in - NNW 8.1 mph - N/A   Overcast
9:55 PM 62.6 °F 60.8 °F 94% 30.25 in - North 9.2 mph - N/A   Overcast
10:15 PM 62.6 °F 59.0 °F 88% 30.25 in - NNW 6.9 mph - N/A   Overcast
10:35 PM 62.6 °F 59.0 °F 88% 30.25 in - NW 8.1 mph - N/A   Overcast
10:55 PM 62.6 °F 59.0 °F 88% 30.24 in - NNW 6.9 mph - N/A   Overcast
11:15 PM 62.6 °F 59.0 °F 88% 30.24 in - NW 8.1 mph - N/A   Overcast
11:35 PM 62.6 °F 59.0 °F 88% 30.23 in - NNW 8.1 mph - N/A   Overcast
11:55 PM 62.6 °F 59.0 °F 88% 30.23 in - NNW 6.9 mph - N/A   Overcast